FW0663 Weather Reports


Display with metric or nautical units.
time (UTC)temp
F
wind
direction
speed
MPH
gust
MPH
rain 1hr
in
rain 24hr
in
rain mn
in
humidity
%
barometer
mb
20260901010017 85 331 5.0 13.0 0.00 0.00 0.00 18 1006.7
20260901004514 86 14 5.0 11.0 0.00 0.00 0.00 18 1006.9
20260901003012 86 308 4.0 9.0 0.00 0.00 0.00 18 1007.1
20260901001510 86 323 5.0 9.0 0.00 0.00 0.00 16 1007.1
20260901000013 87 311 5.0 8.0 0.00 0.00 0.00 16 1007.3
20260831234509 87 328 4.0 8.0 0.00 0.00 0.00 16 1007.6
20260831233004 87 23 4.0 9.0 0.00 0.00 0.00 16 1007.7
20260831231510 87 311 5.0 11.0 0.00 0.00 0.00 17 1008.0
20260831230003 87 270 5.0 11.0 0.00 0.00 0.00 17 1008.0
20260831224501 87 323 3.0 8.0 0.00 0.00 0.00 17 1008.1
20260831223059 87 287 3.0 7.0 0.00 0.00 0.00 17 1008.3
20260831221605 87 273 4.0 8.0 0.00 0.00 0.00 18 1008.5
20260831220055 86 279 3.0 9.0 0.00 0.00 0.00 17 1008.7
20260831214550 85 252 3.0 7.0 0.00 0.00 0.00 17 1009.0
20260831213047 85 321 3.0 8.0 0.00 0.00 0.00 17 1009.3
20260831211603 84 5 3.0 8.0 0.00 0.00 0.00 17 1009.6
20260831210040 83 285 3.0 8.0 0.00 0.00 0.00 17 1009.9
20260831204538 82 271 2.0 10.0 0.00 0.00 0.00 19 1010.2
20260831203039 81 240 1.0 5.0 0.00 0.00 0.00 19 1010.7
20260831201533 81 279 2.0 7.0 0.00 0.00 0.00 19 1011.0
20260831200027 80 281 3.0 8.0 0.00 0.00 0.00 20 1011.3
20260831194523 79 251 1.0 6.0 0.00 0.00 0.00 21 1011.8
20260831193019 78 42 0.0 3.0 0.00 0.00 0.00 23 1012.0
20260831191534 76 328 1.0 5.0 0.00 0.00 0.00 22 1012.4
20260831190013 75 341 2.0 8.0 0.00 0.00 0.00 23 1012.6
20260831184509 73 43 1.0 5.0 0.00 0.00 0.00 26 1013.0
20260831183004 72 286 1.0 5.0 0.00 0.00 0.00 24 1013.3
20260831181501 70 252 1.0 4.0 0.00 0.00 0.00 27 1013.6
20260831180058 69 60 1.0 4.0 0.00 0.00 0.00 27 1013.9
20260831174553 67 345 2.0 5.0 0.00 0.00 0.00 32 1014.2
20260831173049 65 277 2.0 5.0 0.00 0.00 0.00 30 1014.3
20260831171545 63 240 0.0 4.0 0.00 0.00 0.00 36 1014.6
20260831170042 62 242 0.0 2.0 0.00 0.00 0.00 38 1014.8
20260831164537 61 317 0.0 3.0 0.00 0.00 0.00 34 1015.0
20260831163035 60 296 0.0 2.0 0.00 0.00 0.00 36 1015.1
20260831161533 58 153 0.0 2.0 0.00 0.00 0.00 40 1015.4
20260831160030 56 82 0.0 4.0 0.00 0.00 0.00 46 1015.6
20260831154538 54 74 0.0 3.0 0.00 0.00 0.00 48 1015.8
20260831153024 52 84 0.0 4.0 0.00 0.00 0.00 48 1015.9
20260831151525 50 76 0.0 3.0 0.00 0.00 0.00 54 1016.1
20260831150014 48 87 0.0 2.0 0.00 0.00 0.00 54 1016.1
20260831144514 45 83 0.0 3.0 0.00 0.00 0.00 61 1016.1
20260831143012 44 100 0.0 3.0 0.00 0.00 0.00 63 1016.1
20260831141513 42 115 1.0 3.0 0.00 0.00 0.00 62 1016.0
20260831140010 40 157 0.0 0.0 0.00 0.00 0.00 65 1016.1
20260831134509 40 157 0.0 0.0 0.00 0.00 0.00 63 1016.1
20260831133008 41 117 0.0 0.0 0.00 0.00 0.00 64 1016.1
20260831131506 41 91 0.0 2.0 0.00 0.00 0.00 61 1016.0
20260831130005 40 131 0.0 2.0 0.00 0.00 0.00 64 1016.0
20260831124510 41 113 0.0 3.0 0.00 0.00 0.00 62 1016.2
20260831123002 41 107 1.0 3.0 0.00 0.00 0.00 63 1016.2
20260831121609 41 135 0.0 2.0 0.00 0.00 0.00 62 1016.3
20260831120058 42 127 1.0 2.0 0.00 0.00 0.00 62 1016.4
20260831114556 42 127 0.0 0.0 0.00 0.00 0.00 60 1016.4
20260831113054 42 126 0.0 2.0 0.00 0.00 0.00 61 1016.5
20260831111554 42 142 0.0 2.0 0.00 0.00 0.00 63 1016.5
20260831110050 43 99 1.0 3.0 0.00 0.00 0.00 58 1016.7
20260831104549 43 128 0.0 2.0 0.00 0.00 0.00 59 1016.7
20260831103052 43 110 0.0 2.0 0.00 0.00 0.00 60 1016.8
20260831101557 43 115 1.0 3.0 0.00 0.00 0.00 59 1016.7
20260831100100 43 101 0.0 0.0 0.00 0.00 0.00 65 1016.7
20260831094539 44 98 0.0 0.0 0.00 0.00 0.00 59 1016.8
20260831093045 45 115 0.0 0.0 0.00 0.00 0.00 58 1016.8
20260831091537 45 105 0.0 0.0 0.00 0.00 0.00 56 1016.9
20260831090033 45 129 0.0 0.0 0.00 0.00 0.00 55 1016.9
20260831084531 47 120 0.0 0.0 0.00 0.00 0.00 55 1017.1
20260831083030 46 123 0.0 0.0 0.00 0.00 0.00 54 1017.1
20260831081534 47 111 0.0 0.0 0.00 0.00 0.00 55 1017.0
20260831080025 48 111 0.0 0.0 0.00 0.00 0.00 52 1017.1
20260831074528 48 119 0.0 0.0 0.00 0.00 0.00 53 1017.2
20260831073024 48 123 0.0 0.0 0.00 0.00 0.00 55 1017.1
20260831071521 48 112 0.0 0.0 0.00 0.00 0.00 54 1017.1
20260831070020 48 96 0.0 0.0 0.00 0.00 0.00 52 1017.1
20260831064519 50 96 0.0 0.0 0.00 0.00 0.00 52 1017.1
20260831063022 49 121 0.0 1.0 0.00 0.00 0.00 51 1017.0
20260831061518 49 106 0.0 2.0 0.00 0.00 0.00 55 1016.9
20260831060020 49 106 0.0 2.0 0.00 0.00 0.00 54 1016.9
20260831054517 50 103 0.0 2.0 0.00 0.00 0.00 55 1017.0
20260831053039 50 97 1.0 2.0 0.00 0.00 0.00 55 1017.0
20260831051517 50 105 0.0 1.0 0.00 0.00 0.00 51 1017.0
20260831050016 51 118 0.0 2.0 0.00 0.00 0.00 53 1017.0
20260831044516 52 139 0.0 2.0 0.00 0.00 0.00 53 1017.0
20260831043015 54 99 0.0 2.0 0.00 0.00 0.00 51 1017.0
20260831041515 56 90 0.0 0.0 0.00 0.00 0.00 39 1016.9
20260831040015 57 90 0.0 0.0 0.00 0.00 0.00 44 1016.9
20260831034514 60 90 0.0 0.0 0.00 0.00 0.00 39 1016.8
20260831033027 64 215 0.0 1.0 0.00 0.00 0.00 36 1016.6
20260831031513 65 236 0.0 2.0 0.00 0.00 0.00 29 1016.5
20260831030013 67 247 0.0 2.0 0.00 0.00 0.00 24 1016.3
20260831024512 69 299 0.0 2.0 0.00 0.00 0.00 26 1016.2
20260831023018 72 307 0.0 2.0 0.00 0.00 0.00 23 1016.1
20260831021514 73 302 0.0 2.0 0.00 0.00 0.00 21 1016.1
20260831020011 76 257 0.0 3.0 0.00 0.00 0.00 20 1016.2
20260831014509 77 286 0.0 2.0 0.00 0.00 0.00 20 1016.3
20260831013008 78 271 0.0 0.0 0.00 0.00 0.00 18 1016.4
20260831011507 78 206 0.0 2.0 0.00 0.00 0.00 15 1016.4